User: anonymous
Location: Fort Wayne
(41.1310°N, 85.1290°W)
Time: 11:27:52
(UTC-04:00)
Language:

Iridium 37 - Orbit

View from above orbital plane
View from above orbital plane
View from above satellite
View from above satellite

Ground track
Ground track

The orbit data is extracted from the following two-line orbital elements,

1 24968U 97056D   14106.99891617  .00000088  00000-0  24486-4 0  7709
2 24968 086.3950 082.5626 0002200 101.4583 258.6860 14.34216876866677
Epoch (UTC): 16 April 2014 23:58:26
Eccentricity: 0.0002200
inclination: 86.3950°
perigee height: 776 km
apogee height: 779 km
right ascension of ascending node: 82.5626°
argument of perigee: 101.4583°
revolutions per day: 14.34216876
mean anomaly at epoch: 258.6860°
orbit number at epoch: 86667

The dashed part of the orbit path shows where the satellite is in the earth's shadow,  

DLR